ARIANE 2 DEB, 27042

Orbit data source: Space-Track

ARIANE 2 DEB, 27042 is space debris in HEO originally from a launch on Fri, 27 Jan 1989 UTC launched from the French Guiana (FRGUI). Debris objects in space refer to the collection of defunct objects orbiting the Earth. Examples of debris include non-operational satellites, rocket bodies, and fragments generated from explosions, collisions, or faulty payload assembly.

Loading next visibility...
Identifier
27042, 1989-006X
Orbit
HEO
Country
Flag of FRFR
Related business
Manufacturer
EADS/LV
Mission
Spacecraft
Bus & Motor
Unknown
Mass
Unknown
Launch date (UTC)
1989-01-27 (37 years ago)
Launch vehicle
Unknown
Launch site
French Guiana (FRGUI)
Object type
Payload
Rocket body
Debris
Shape & HBR
Unknown shape, 0.8 m
Radar Cross Section
Medium (>0.1 m² and <1 m²)

Expand to show TLE details & history
Last TLE update: 13 hours ago

TLE from 13 hours ago
0 ARIANE 2 DEB
1 27042U 89006X   26061.74250799 -.00000117  00000-0 -74685-3 0  9990
2 27042   8.2494 302.8190 7131011 355.8282 213.8421  2.25357517 99101
Epoch: 2026-03-02T17:49Z
TLE epoch observation values (Epoch: 2026-03-02T17:49:12.690Z)
Latitude
-0.58611°
Longitude
59.07176°
Altitude
34,684.662 km
Speed
1.787 km/s
True Right ascension
08h 27m 37s
True Declination
0° 35' 08"
Sunlit
Object was in daylight at epoch
Visualization orbit readout
Latitude
Unknown
Longitude
Unknown
Altitude
Unknown
Speed
Unknown
Apparent Right ascension
Unknown
Apparent Declination
Unknown
Sunlit
N/A
Visualization observer readout
Local Sidereal Time
10:46:02
Azimuth
Unknown
Elevation
Unknown
Doppler factor
Unknown
Orbital elements
Apogee altitude
35,729.366 km
Perigee altitude
673.751 km
Semi-major axis
24,579.695 km
Eccentricity
0.7131
Inclination
8.2494°
RAAN
302.819°
Arg. of periapsis
355.8282°
True anomaly
188.22134°
Mean anomaly
213.8421°
Eccentric anomaly
199.92094°
Mean motion
0.56322 °/min
Orbital period
639.18 mins
BSTAR
-0.00074685
Loading maneuver chart data...
Computing Atmospheric mass density...
Loading historical data...
Loading historical data...
Loading historical data...
Loading historical data...
Loading historical data...
Loading historical data...
Loading historical data...

Documentation

Showing up to 5 results
|